Year,Month,Day,Hour,Minute,Value (Times are PST for temperature in C)
2010,07,07,00,00,19.80
2010,07,07,00,01,19.80
2010,07,07,00,02,19.80
2010,07,07,00,03,19.70
2010,07,07,00,04,19.70
2010,07,07,00,05,19.70
2010,07,07,00,06,19.70
2010,07,07,00,07,19.60
2010,07,07,00,08,19.60
2010,07,07,00,09,19.60
2010,07,07,00,10,19.60
2010,07,07,00,11,19.50
2010,07,07,00,12,19.50
2010,07,07,00,13,19.50
2010,07,07,00,14,19.40
2010,07,07,00,15,19.40
2010,07,07,00,16,19.40
2010,07,07,00,17,19.40
2010,07,07,00,18,19.30
2010,07,07,00,19,19.30
2010,07,07,00,20,19.30
2010,07,07,00,21,19.30
2010,07,07,00,22,19.20
2010,07,07,00,23,19.20
2010,07,07,00,24,19.20
2010,07,07,00,25,19.10
2010,07,07,00,26,19.10
2010,07,07,00,27,19.00
2010,07,07,00,28,19.00
2010,07,07,00,29,18.90
2010,07,07,00,30,18.90
2010,07,07,00,31,18.90
2010,07,07,00,32,18.90
2010,07,07,00,33,18.80
2010,07,07,00,34,18.80
2010,07,07,00,35,18.80
2010,07,07,00,36,18.80
2010,07,07,00,37,18.80
2010,07,07,00,38,18.80
2010,07,07,00,39,18.80
2010,07,07,00,40,18.80
2010,07,07,00,41,18.80
2010,07,07,00,42,18.80
2010,07,07,00,43,18.70
2010,07,07,00,44,18.70
2010,07,07,00,45,18.70
2010,07,07,00,46,18.70
2010,07,07,00,47,18.70
2010,07,07,00,48,18.70
2010,07,07,00,49,18.70
2010,07,07,00,50,18.60
2010,07,07,00,51,18.60
2010,07,07,00,52,18.60
2010,07,07,00,53,18.60
2010,07,07,00,54,18.60
2010,07,07,00,55,18.60
2010,07,07,00,56,18.60
2010,07,07,00,57,18.50
2010,07,07,00,58,18.50
2010,07,07,00,59,18.50
2010,07,07,01,00,18.50
2010,07,07,01,01,18.50
2010,07,07,01,02,18.50
2010,07,07,01,03,18.50
2010,07,07,01,04,18.50
2010,07,07,01,05,18.40
2010,07,07,01,06,18.50
2010,07,07,01,07,18.50
2010,07,07,01,08,18.50
2010,07,07,01,09,18.40
2010,07,07,01,10,18.40
2010,07,07,01,11,18.40
2010,07,07,01,12,18.40
2010,07,07,01,13,18.40
2010,07,07,01,14,18.40
2010,07,07,01,15,18.40
2010,07,07,01,16,18.30
2010,07,07,01,17,18.30
2010,07,07,01,18,18.30
2010,07,07,01,19,18.30
2010,07,07,01,20,18.30
2010,07,07,01,21,18.30
2010,07,07,01,22,18.30
2010,07,07,01,23,18.30
2010,07,07,01,24,18.20
2010,07,07,01,25,18.20
2010,07,07,01,26,18.20
2010,07,07,01,27,18.20
2010,07,07,01,28,18.10
2010,07,07,01,29,18.10
2010,07,07,01,30,18.10
2010,07,07,01,31,18.10
2010,07,07,01,32,18.10
2010,07,07,01,33,18.00
2010,07,07,01,34,18.00
2010,07,07,01,35,18.00
2010,07,07,01,36,17.90
2010,07,07,01,37,17.90
2010,07,07,01,38,17.90
2010,07,07,01,39,17.90
2010,07,07,01,40,17.90
2010,07,07,01,41,17.80
2010,07,07,01,42,17.80
2010,07,07,01,43,17.80
2010,07,07,01,44,17.70
2010,07,07,01,45,17.70
2010,07,07,01,46,17.70
2010,07,07,01,47,17.60
2010,07,07,01,48,17.60
2010,07,07,01,49,17.60
2010,07,07,01,50,17.50
2010,07,07,01,51,17.40
2010,07,07,01,52,17.40
2010,07,07,01,53,17.40
2010,07,07,01,54,17.40
2010,07,07,01,55,17.30
2010,07,07,01,56,17.30
2010,07,07,01,57,17.30
2010,07,07,01,58,17.30
2010,07,07,01,59,17.30
2010,07,07,02,00,17.30
2010,07,07,02,01,17.20
2010,07,07,02,02,17.20
2010,07,07,02,03,17.20
2010,07,07,02,04,17.20
2010,07,07,02,05,17.20
2010,07,07,02,06,17.20
2010,07,07,02,07,17.20
2010,07,07,02,08,17.20
2010,07,07,02,09,17.20
2010,07,07,02,10,17.20
2010,07,07,02,11,17.20
2010,07,07,02,12,17.20
2010,07,07,02,13,17.20
2010,07,07,02,14,17.20
2010,07,07,02,15,17.10
2010,07,07,02,16,17.20
2010,07,07,02,17,17.20
2010,07,07,02,18,17.20
2010,07,07,02,19,17.20
2010,07,07,02,20,17.20
2010,07,07,02,21,17.20
2010,07,07,02,22,17.20
2010,07,07,02,23,17.20
2010,07,07,02,24,17.20
2010,07,07,02,25,17.20
2010,07,07,02,26,17.20
2010,07,07,02,27,17.20
2010,07,07,02,28,17.20
2010,07,07,02,29,17.20
2010,07,07,02,30,17.20
2010,07,07,02,31,17.10
2010,07,07,02,32,17.10
2010,07,07,02,33,17.10
2010,07,07,02,34,17.10
2010,07,07,02,35,17.10
2010,07,07,02,36,17.10
2010,07,07,02,37,17.00
2010,07,07,02,38,17.00
2010,07,07,02,39,17.00
2010,07,07,02,40,16.90
2010,07,07,02,41,16.90
2010,07,07,02,42,16.90
2010,07,07,02,43,16.90
2010,07,07,02,44,16.80
2010,07,07,02,45,16.80
2010,07,07,02,46,16.80
2010,07,07,02,47,16.70
2010,07,07,02,48,16.70
2010,07,07,02,49,16.70
2010,07,07,02,50,16.60
2010,07,07,02,51,16.60
2010,07,07,02,52,16.60
2010,07,07,02,53,16.50
2010,07,07,02,54,16.50
2010,07,07,02,55,16.40
2010,07,07,02,56,16.40
2010,07,07,02,57,16.40
2010,07,07,02,58,16.40
2010,07,07,02,59,16.30
2010,07,07,03,00,16.30
2010,07,07,03,01,16.30
2010,07,07,03,02,16.30
2010,07,07,03,06,16.20
2010,07,07,03,07,16.20
2010,07,07,03,08,16.10
2010,07,07,03,09,16.10
2010,07,07,03,10,16.10
2010,07,07,03,11,16.10
2010,07,07,03,12,16.00
2010,07,07,03,13,16.00
2010,07,07,03,14,15.90
2010,07,07,03,15,15.90
2010,07,07,03,16,15.90
2010,07,07,03,17,15.90
2010,07,07,03,18,15.90
2010,07,07,03,19,15.80
2010,07,07,03,20,15.80
2010,07,07,03,21,15.80
2010,07,07,03,22,15.80
2010,07,07,03,23,15.80
2010,07,07,03,24,15.80
2010,07,07,03,25,15.80
2010,07,07,03,26,15.80
2010,07,07,03,27,15.80
2010,07,07,03,28,15.80
2010,07,07,03,29,15.80
2010,07,07,03,30,15.80
2010,07,07,03,31,15.80
2010,07,07,03,32,15.80
2010,07,07,03,33,15.80
2010,07,07,03,34,15.80
2010,07,07,03,35,15.80
2010,07,07,03,36,15.80
2010,07,07,03,37,15.80
2010,07,07,03,38,15.80
2010,07,07,03,39,15.80
2010,07,07,03,40,15.80
2010,07,07,03,41,15.80
2010,07,07,03,42,15.80
2010,07,07,03,43,15.80
2010,07,07,03,44,15.80
2010,07,07,03,45,15.90
2010,07,07,03,46,15.90
2010,07,07,03,47,15.90
2010,07,07,03,48,15.90
2010,07,07,03,49,15.90
2010,07,07,03,50,15.90
2010,07,07,03,51,15.90
2010,07,07,03,52,15.90
2010,07,07,03,53,15.90
2010,07,07,03,54,15.90
2010,07,07,03,55,15.90
2010,07,07,03,56,15.90
2010,07,07,03,57,15.90
2010,07,07,03,58,15.90
2010,07,07,03,59,15.90
2010,07,07,04,00,15.90
2010,07,07,04,01,15.90
2010,07,07,04,02,16.00
2010,07,07,04,03,15.90
2010,07,07,04,04,15.90
2010,07,07,04,05,15.90
2010,07,07,04,06,15.90
2010,07,07,04,07,15.90
2010,07,07,04,08,15.90
2010,07,07,04,09,15.80
2010,07,07,04,10,15.80
2010,07,07,04,11,15.80
2010,07,07,04,12,15.80
2010,07,07,04,13,15.80
2010,07,07,04,14,15.80
2010,07,07,04,15,15.80
2010,07,07,04,16,15.80
2010,07,07,04,17,15.80
2010,07,07,04,18,15.70
2010,07,07,04,19,15.70
2010,07,07,04,20,15.70
2010,07,07,04,21,15.70
2010,07,07,04,22,15.70
2010,07,07,04,23,15.70
2010,07,07,04,24,15.70
2010,07,07,04,25,15.70
2010,07,07,04,26,15.70
2010,07,07,04,27,15.70
2010,07,07,04,28,15.70
2010,07,07,04,29,15.70
2010,07,07,04,30,15.70
2010,07,07,04,31,15.60
2010,07,07,04,32,15.60
2010,07,07,04,33,15.60
2010,07,07,04,34,15.60
2010,07,07,04,35,15.60
2010,07,07,04,36,15.60
2010,07,07,04,37,15.60
2010,07,07,04,38,15.60
2010,07,07,04,39,15.50
2010,07,07,04,40,15.50
2010,07,07,04,41,15.50
2010,07,07,04,42,15.50
2010,07,07,04,43,15.40
2010,07,07,04,44,15.40
2010,07,07,04,45,15.40
2010,07,07,04,46,15.40
2010,07,07,04,47,15.40
2010,07,07,04,48,15.30
2010,07,07,04,49,15.30
2010,07,07,04,50,15.30
2010,07,07,04,51,15.30
2010,07,07,04,52,15.30
2010,07,07,04,53,15.30
2010,07,07,04,54,15.30
2010,07,07,04,55,15.30
2010,07,07,04,56,15.30
2010,07,07,04,57,15.30
2010,07,07,04,58,15.30
2010,07,07,04,59,15.30
2010,07,07,05,00,15.20
2010,07,07,05,01,15.20
2010,07,07,05,02,15.20
2010,07,07,05,03,15.20
2010,07,07,05,04,15.20
2010,07,07,05,05,15.20
2010,07,07,05,06,15.20
2010,07,07,05,07,15.20
2010,07,07,05,08,15.20
2010,07,07,05,09,15.20
2010,07,07,05,10,15.20
2010,07,07,05,11,15.20
2010,07,07,05,12,15.20
2010,07,07,05,13,15.20
2010,07,07,05,14,15.20
2010,07,07,05,15,15.20
2010,07,07,05,16,15.20
2010,07,07,05,17,15.20
2010,07,07,05,18,15.20
2010,07,07,05,19,15.20
2010,07,07,05,20,15.20
2010,07,07,05,21,15.10
2010,07,07,05,22,15.10
2010,07,07,05,23,15.10
2010,07,07,05,24,15.20
2010,07,07,05,25,15.20
2010,07,07,05,26,15.20
2010,07,07,05,27,15.20
2010,07,07,05,28,15.20
2010,07,07,05,29,15.20
2010,07,07,05,30,15.20
2010,07,07,05,31,15.20
2010,07,07,05,32,15.10
2010,07,07,05,33,15.10
2010,07,07,05,34,15.10
2010,07,07,05,35,15.10
2010,07,07,05,36,15.10
2010,07,07,05,37,15.10
2010,07,07,05,38,15.10
2010,07,07,05,39,15.10
2010,07,07,05,40,15.10
2010,07,07,05,41,15.10
2010,07,07,05,42,15.10
2010,07,07,05,43,15.10
2010,07,07,05,44,15.10
2010,07,07,05,45,15.10
2010,07,07,05,46,15.10
2010,07,07,05,47,15.10
2010,07,07,05,48,15.10
2010,07,07,05,49,15.10
2010,07,07,05,50,15.10
2010,07,07,05,51,15.10
2010,07,07,05,52,15.10
2010,07,07,05,53,15.10
2010,07,07,05,54,15.10
2010,07,07,05,55,15.10
2010,07,07,05,56,15.10
2010,07,07,05,57,15.10
2010,07,07,05,58,15.10
2010,07,07,05,59,15.10
2010,07,07,06,00,15.10
2010,07,07,06,01,15.10
2010,07,07,06,02,15.00
2010,07,07,06,03,15.00
2010,07,07,06,04,15.00
2010,07,07,06,05,15.00
2010,07,07,06,06,15.00
2010,07,07,06,07,15.00
2010,07,07,06,08,15.00
2010,07,07,06,09,15.00
2010,07,07,06,10,15.00
2010,07,07,06,11,15.00
2010,07,07,06,12,15.00
2010,07,07,06,13,15.00
2010,07,07,06,14,15.00
2010,07,07,06,15,15.10
2010,07,07,06,16,15.10
2010,07,07,06,17,15.10
2010,07,07,06,18,15.10
2010,07,07,06,19,15.10
2010,07,07,06,20,15.10
2010,07,07,06,21,15.10
2010,07,07,06,22,15.10
2010,07,07,06,23,15.20
2010,07,07,06,24,15.20
2010,07,07,06,25,15.20
2010,07,07,06,26,15.20
2010,07,07,06,27,15.20
2010,07,07,06,28,15.20
2010,07,07,06,29,15.20
2010,07,07,06,30,15.20
2010,07,07,06,31,15.30
2010,07,07,06,32,15.30
2010,07,07,06,33,15.30
2010,07,07,06,34,15.40
2010,07,07,06,35,15.40
2010,07,07,06,36,15.40
2010,07,07,06,37,15.50
2010,07,07,06,38,15.60
2010,07,07,06,39,15.60
2010,07,07,06,40,15.70
2010,07,07,06,41,15.80
2010,07,07,06,42,15.80
2010,07,07,06,43,15.90
2010,07,07,06,44,15.90
2010,07,07,06,45,16.00
2010,07,07,06,46,16.00
2010,07,07,06,47,16.10
2010,07,07,06,48,16.10
2010,07,07,06,49,16.20
2010,07,07,06,50,16.20
2010,07,07,06,51,16.30
2010,07,07,06,52,16.30
2010,07,07,06,53,16.40
2010,07,07,06,54,16.50
2010,07,07,06,55,16.60
2010,07,07,06,56,16.60
2010,07,07,06,57,16.70
2010,07,07,06,58,16.70
2010,07,07,06,59,16.80
2010,07,07,07,00,16.80
2010,07,07,07,01,16.90
2010,07,07,07,02,16.90
2010,07,07,07,03,17.00
2010,07,07,07,04,17.00
2010,07,07,07,05,17.10
2010,07,07,07,06,17.10
2010,07,07,07,07,17.10
2010,07,07,07,08,17.20
2010,07,07,07,09,17.20
2010,07,07,07,10,17.20
2010,07,07,07,11,17.20
2010,07,07,07,12,17.30
2010,07,07,07,13,17.30
2010,07,07,07,14,17.30
2010,07,07,07,15,17.30
2010,07,07,07,16,17.30
2010,07,07,07,17,17.30
2010,07,07,07,18,17.40
2010,07,07,07,19,17.40
2010,07,07,07,20,17.40
2010,07,07,07,21,17.50
2010,07,07,07,22,17.50
2010,07,07,07,23,17.50
2010,07,07,07,24,17.60
2010,07,07,07,25,17.60
2010,07,07,07,26,17.60
2010,07,07,07,27,17.60
2010,07,07,07,28,17.70
2010,07,07,07,29,17.70
2010,07,07,07,30,17.70
2010,07,07,07,31,17.70
2010,07,07,07,32,17.80
2010,07,07,07,33,17.80
2010,07,07,07,34,17.80
2010,07,07,07,35,17.80
2010,07,07,07,36,17.90
2010,07,07,07,37,17.90
2010,07,07,07,38,17.90
2010,07,07,07,39,17.90
2010,07,07,07,40,18.00
2010,07,07,07,41,18.00
2010,07,07,07,42,18.00
2010,07,07,07,43,18.10
2010,07,07,07,44,18.10
2010,07,07,07,45,18.10
2010,07,07,07,46,18.10
2010,07,07,07,47,18.10
2010,07,07,07,48,18.20
2010,07,07,07,49,18.20
2010,07,07,07,50,18.20
2010,07,07,07,51,18.20
2010,07,07,07,52,18.30
2010,07,07,07,53,18.30
2010,07,07,07,54,18.30
2010,07,07,07,55,18.40
2010,07,07,07,56,18.40
2010,07,07,07,57,18.40
2010,07,07,07,58,18.50
2010,07,07,07,59,18.50
2010,07,07,08,00,18.60
2010,07,07,08,01,18.70
2010,07,07,08,02,18.70
2010,07,07,08,03,18.70
2010,07,07,08,04,18.80
2010,07,07,08,05,18.80
2010,07,07,08,06,18.80
2010,07,07,08,07,18.80
2010,07,07,08,08,18.80
2010,07,07,08,09,18.80
2010,07,07,08,10,18.90
2010,07,07,08,11,18.90
2010,07,07,08,12,19.00
2010,07,07,08,13,19.00
2010,07,07,08,14,19.00
2010,07,07,08,15,19.10
2010,07,07,08,16,19.10
2010,07,07,08,17,19.10
2010,07,07,08,18,19.20
2010,07,07,08,19,19.20
2010,07,07,08,20,19.20
2010,07,07,08,21,19.20
2010,07,07,08,22,19.20
2010,07,07,08,23,19.30
2010,07,07,08,24,19.30
2010,07,07,08,25,19.40
2010,07,07,08,26,19.40
2010,07,07,08,27,19.40
2010,07,07,08,28,19.50
2010,07,07,08,29,19.60
2010,07,07,08,30,19.60
2010,07,07,08,31,19.70
2010,07,07,08,32,19.70
2010,07,07,08,33,19.70
2010,07,07,08,34,19.80
2010,07,07,08,35,19.80
2010,07,07,08,36,19.90
2010,07,07,08,37,19.90
2010,07,07,08,38,19.90
2010,07,07,08,39,19.90
2010,07,07,08,40,19.90
2010,07,07,08,41,20.00
2010,07,07,08,42,20.00
2010,07,07,08,43,20.10
2010,07,07,08,44,20.10
2010,07,07,08,45,20.10
2010,07,07,08,46,20.20
2010,07,07,08,47,20.20
2010,07,07,08,48,20.30
2010,07,07,08,49,20.30
2010,07,07,08,50,20.30
2010,07,07,08,51,20.30
2010,07,07,08,52,20.30
2010,07,07,08,53,20.40
2010,07,07,08,54,20.40
2010,07,07,08,55,20.40
2010,07,07,08,56,20.40
2010,07,07,08,57,20.40
2010,07,07,08,58,20.50
2010,07,07,08,59,20.50
2010,07,07,09,00,20.60
2010,07,07,09,01,20.60
2010,07,07,09,02,20.70
2010,07,07,09,03,20.70
2010,07,07,09,04,20.80
2010,07,07,09,05,20.80
2010,07,07,09,06,20.80
2010,07,07,09,07,20.80
2010,07,07,09,08,20.90
2010,07,07,09,09,20.90
2010,07,07,09,10,20.90
2010,07,07,09,11,21.00
2010,07,07,09,12,21.10
2010,07,07,09,13,21.20
2010,07,07,09,14,21.30
2010,07,07,09,15,21.40
2010,07,07,09,16,21.50
2010,07,07,09,17,21.60
2010,07,07,09,18,21.60
2010,07,07,09,19,21.60
2010,07,07,09,20,21.60
2010,07,07,09,21,21.60
2010,07,07,09,22,21.60
2010,07,07,09,23,21.60
2010,07,07,09,24,21.60
2010,07,07,09,25,21.60
2010,07,07,09,26,21.60
2010,07,07,09,27,21.70
2010,07,07,09,28,21.70
2010,07,07,09,29,21.70
2010,07,07,09,30,21.80
2010,07,07,09,31,21.80
2010,07,07,09,32,21.90
2010,07,07,09,33,21.90
2010,07,07,09,34,22.00
2010,07,07,09,35,22.10
2010,07,07,09,36,22.10
2010,07,07,09,37,22.20
2010,07,07,09,38,22.30
2010,07,07,09,39,22.30
2010,07,07,09,40,22.30
2010,07,07,09,41,22.30
2010,07,07,09,42,22.30
2010,07,07,09,43,22.30
2010,07,07,09,44,22.30
2010,07,07,09,45,22.30
2010,07,07,09,46,22.30
2010,07,07,09,47,22.30
2010,07,07,09,48,22.30
2010,07,07,09,49,22.40
2010,07,07,09,50,22.50
2010,07,07,09,51,22.60
2010,07,07,09,52,22.60
2010,07,07,09,53,22.70
2010,07,07,09,54,22.70
2010,07,07,09,55,22.80
2010,07,07,09,56,22.90
2010,07,07,09,57,23.00
2010,07,07,09,58,23.00
2010,07,07,09,59,23.10
2010,07,07,10,00,23.20
2010,07,07,10,01,23.30
2010,07,07,10,02,23.30
2010,07,07,10,03,23.40
2010,07,07,10,04,23.40
2010,07,07,10,05,23.50
2010,07,07,10,06,23.50
2010,07,07,10,07,23.50
2010,07,07,10,08,23.50
2010,07,07,10,09,23.50
2010,07,07,10,10,23.50
2010,07,07,10,11,23.60
2010,07,07,10,12,23.60
2010,07,07,10,13,23.70
2010,07,07,10,14,23.80
2010,07,07,10,15,23.80
2010,07,07,10,16,23.80
2010,07,07,10,17,23.90
2010,07,07,10,18,23.90
2010,07,07,10,19,23.90
2010,07,07,10,20,23.90
2010,07,07,10,21,23.90
2010,07,07,10,22,24.00
2010,07,07,10,23,24.10
2010,07,07,10,24,24.20
2010,07,07,10,25,24.30
2010,07,07,10,26,24.30
2010,07,07,10,27,24.30
2010,07,07,10,28,24.30
2010,07,07,10,29,24.30
2010,07,07,10,30,24.40
2010,07,07,10,31,24.40
2010,07,07,10,32,24.40
2010,07,07,10,33,24.40
2010,07,07,10,34,24.50
2010,07,07,10,35,24.50
2010,07,07,10,36,24.60
2010,07,07,10,37,24.70
2010,07,07,10,38,24.70
2010,07,07,10,39,24.70
2010,07,07,10,40,24.80
2010,07,07,10,41,24.80
2010,07,07,10,42,24.90
2010,07,07,10,43,25.00
2010,07,07,10,44,25.00
2010,07,07,10,45,25.10
2010,07,07,10,46,25.10
2010,07,07,10,47,25.10
2010,07,07,10,48,25.20
2010,07,07,10,49,25.30
2010,07,07,10,50,25.30
2010,07,07,10,51,25.40
2010,07,07,10,52,25.40
2010,07,07,10,53,25.40
2010,07,07,10,54,25.40
2010,07,07,10,55,25.30
2010,07,07,10,56,25.30
2010,07,07,10,57,25.40
2010,07,07,10,58,25.40
2010,07,07,10,59,25.50
2010,07,07,11,00,25.50
2010,07,07,11,01,25.50
2010,07,07,11,02,25.60
2010,07,07,11,03,25.60
2010,07,07,11,04,25.70
2010,07,07,11,05,25.80
2010,07,07,11,06,25.90
2010,07,07,11,07,26.00
2010,07,07,11,08,26.10
2010,07,07,11,09,26.20
2010,07,07,11,10,26.30
2010,07,07,11,11,26.30
2010,07,07,11,12,26.30
2010,07,07,11,13,26.30
2010,07,07,11,14,26.30
2010,07,07,11,15,26.40
2010,07,07,11,16,26.50
2010,07,07,11,17,26.60
2010,07,07,11,18,26.70
2010,07,07,11,19,26.70
2010,07,07,11,20,26.80
2010,07,07,11,21,26.80
2010,07,07,11,22,26.90
2010,07,07,11,23,26.90
2010,07,07,11,24,26.90
2010,07,07,11,25,26.90
2010,07,07,11,26,27.00
2010,07,07,11,27,27.00
2010,07,07,11,28,27.00
2010,07,07,11,29,27.00
2010,07,07,11,30,27.00
2010,07,07,11,31,27.00
2010,07,07,11,32,27.10
2010,07,07,11,33,27.10
2010,07,07,11,34,27.10
2010,07,07,11,35,27.10
2010,07,07,11,36,27.20
2010,07,07,11,37,27.20
2010,07,07,11,38,27.20
2010,07,07,11,39,27.30
2010,07,07,11,40,27.30
2010,07,07,11,41,27.30
2010,07,07,11,42,27.40
2010,07,07,11,43,27.40
2010,07,07,11,44,27.50
2010,07,07,11,45,27.60
2010,07,07,11,46,27.70
2010,07,07,11,47,27.70
2010,07,07,11,48,27.80
2010,07,07,11,49,27.80
2010,07,07,11,50,27.80
2010,07,07,11,51,27.80
2010,07,07,11,52,27.80
2010,07,07,11,53,27.70
2010,07,07,11,54,27.70
2010,07,07,11,55,27.80
2010,07,07,11,56,27.90
2010,07,07,11,57,27.90
2010,07,07,11,58,28.00
2010,07,07,11,59,28.00
2010,07,07,12,00,28.10
2010,07,07,12,01,28.20
2010,07,07,12,02,28.30
2010,07,07,12,03,28.30
2010,07,07,12,04,28.50
2010,07,07,12,05,28.60
2010,07,07,12,06,28.60
2010,07,07,12,07,28.70
2010,07,07,12,08,28.80
2010,07,07,12,09,28.90
2010,07,07,12,10,28.90
2010,07,07,12,11,28.90
2010,07,07,12,12,28.80
2010,07,07,12,13,28.80
2010,07,07,12,14,28.80
2010,07,07,12,15,28.80
2010,07,07,12,16,28.80
2010,07,07,12,17,28.80
2010,07,07,12,18,28.80
2010,07,07,12,19,28.70
2010,07,07,12,20,28.70
2010,07,07,12,21,28.80
2010,07,07,12,22,28.80
2010,07,07,12,23,28.90
2010,07,07,12,24,29.00
2010,07,07,12,25,29.10
2010,07,07,12,26,29.30
2010,07,07,12,27,29.40
2010,07,07,12,28,29.50
2010,07,07,12,29,29.60
2010,07,07,12,30,29.50
2010,07,07,12,31,29.40
2010,07,07,12,32,29.40
2010,07,07,12,33,29.50
2010,07,07,12,34,29.70
2010,07,07,12,35,29.80
2010,07,07,12,36,29.80
2010,07,07,12,37,29.90
2010,07,07,12,38,30.00
2010,07,07,12,39,30.10
2010,07,07,12,40,30.20
2010,07,07,12,41,30.40
2010,07,07,12,42,30.50
2010,07,07,12,43,30.60
2010,07,07,12,44,30.70
2010,07,07,12,45,30.70
2010,07,07,12,46,30.70
2010,07,07,12,47,30.70
2010,07,07,12,48,30.70
2010,07,07,12,49,30.80
2010,07,07,12,50,30.90
2010,07,07,12,51,30.90
2010,07,07,12,52,30.90
2010,07,07,12,53,30.90
2010,07,07,12,54,31.00
2010,07,07,12,55,31.10
2010,07,07,12,56,31.20
2010,07,07,12,57,31.20
2010,07,07,12,58,31.20
2010,07,07,12,59,31.20
2010,07,07,13,00,31.30
2010,07,07,13,01,31.40
2010,07,07,13,02,31.50
2010,07,07,13,03,31.50
2010,07,07,13,04,31.50
2010,07,07,13,05,31.40
2010,07,07,13,06,31.40
2010,07,07,13,07,31.40
2010,07,07,13,08,31.50
2010,07,07,13,09,31.60
2010,07,07,13,10,31.60
2010,07,07,13,11,31.60
2010,07,07,13,12,31.60
2010,07,07,13,13,31.60
2010,07,07,13,14,31.60
2010,07,07,13,15,31.60
2010,07,07,13,16,31.60
2010,07,07,13,17,31.60
2010,07,07,13,18,31.60
2010,07,07,13,19,31.60
2010,07,07,13,20,31.70
2010,07,07,13,21,31.80
2010,07,07,13,22,31.80
2010,07,07,13,23,31.80
2010,07,07,13,24,31.80
2010,07,07,13,25,31.70
2010,07,07,13,26,31.80
2010,07,07,13,27,31.80
2010,07,07,13,28,31.70
2010,07,07,13,29,31.70
2010,07,07,13,30,31.70
2010,07,07,13,31,31.70
2010,07,07,13,32,31.70
2010,07,07,13,33,31.80
2010,07,07,13,34,31.80
2010,07,07,13,35,31.80
2010,07,07,13,36,31.80
2010,07,07,13,37,31.80
2010,07,07,13,38,31.80
2010,07,07,13,39,31.80
2010,07,07,13,40,31.70
2010,07,07,13,41,31.70
2010,07,07,13,42,31.70
2010,07,07,13,43,31.70
2010,07,07,13,44,31.60
2010,07,07,13,45,31.60
2010,07,07,13,46,31.60
2010,07,07,13,47,31.60
2010,07,07,13,48,31.60
2010,07,07,13,49,31.60
2010,07,07,13,50,31.70
2010,07,07,13,51,31.80
2010,07,07,13,52,31.80
2010,07,07,13,53,31.90
2010,07,07,13,54,31.90
2010,07,07,13,55,31.90
2010,07,07,13,56,31.90
2010,07,07,13,57,31.90
2010,07,07,13,58,31.90
2010,07,07,13,59,31.90
2010,07,07,14,00,31.90
2010,07,07,14,01,31.90
2010,07,07,14,02,31.90
2010,07,07,14,03,31.90
2010,07,07,14,04,31.90
2010,07,07,14,05,31.90
2010,07,07,14,06,31.80
2010,07,07,14,07,31.80
2010,07,07,14,08,31.90
2010,07,07,14,09,32.00
2010,07,07,14,10,32.10
2010,07,07,14,11,32.20
2010,07,07,14,12,32.20
2010,07,07,14,13,32.30
2010,07,07,14,14,32.30
2010,07,07,14,15,32.40
2010,07,07,14,16,32.40
2010,07,07,14,17,32.30
2010,07,07,14,18,32.20
2010,07,07,14,19,32.10
2010,07,07,14,20,32.10
2010,07,07,14,21,32.10
2010,07,07,14,22,32.10
2010,07,07,14,23,32.10
2010,07,07,14,24,32.10
2010,07,07,14,25,32.10
2010,07,07,14,26,32.10
2010,07,07,14,27,32.10
2010,07,07,14,28,32.00
2010,07,07,14,29,32.00
2010,07,07,14,30,32.10
2010,07,07,14,31,32.20
2010,07,07,14,32,32.20
2010,07,07,14,33,32.20
2010,07,07,14,34,32.20
2010,07,07,14,35,32.20
2010,07,07,14,36,32.20
2010,07,07,14,37,32.20
2010,07,07,14,38,32.20
2010,07,07,14,39,32.30
2010,07,07,14,40,32.30
2010,07,07,14,41,32.40
2010,07,07,14,42,32.50
2010,07,07,14,43,32.60
2010,07,07,14,44,32.50
2010,07,07,14,45,32.50
2010,07,07,14,46,32.40
2010,07,07,14,47,32.30
2010,07,07,14,48,32.30
2010,07,07,14,49,32.20
2010,07,07,14,50,32.10
2010,07,07,14,51,32.10
2010,07,07,14,52,32.20
2010,07,07,14,53,32.30
2010,07,07,14,54,32.50
2010,07,07,14,55,32.50
2010,07,07,14,56,32.40
2010,07,07,14,57,32.40
2010,07,07,14,58,32.50
2010,07,07,14,59,32.60
2010,07,07,15,00,32.70
2010,07,07,15,01,32.80
2010,07,07,15,02,32.90
2010,07,07,15,03,32.90
2010,07,07,15,04,32.90
2010,07,07,15,05,32.90
2010,07,07,15,06,33.00
2010,07,07,15,07,33.10
2010,07,07,15,08,33.10
2010,07,07,15,09,33.10
2010,07,07,15,10,33.00
2010,07,07,15,11,32.90
2010,07,07,15,12,32.90
2010,07,07,15,13,32.80
2010,07,07,15,14,32.80
2010,07,07,15,15,32.80
2010,07,07,15,16,32.90
2010,07,07,15,17,33.00
2010,07,07,15,18,33.00
2010,07,07,15,19,33.00
2010,07,07,15,20,33.00
2010,07,07,15,21,32.90
2010,07,07,15,22,32.90
2010,07,07,15,23,32.90
2010,07,07,15,24,32.80
2010,07,07,15,25,32.80
2010,07,07,15,26,32.80
2010,07,07,15,27,32.90
2010,07,07,15,28,32.90
2010,07,07,15,29,33.00
2010,07,07,15,30,33.10
2010,07,07,15,31,33.10
2010,07,07,15,32,33.20
2010,07,07,15,33,33.20
2010,07,07,15,34,33.30
2010,07,07,15,35,33.30
2010,07,07,15,36,33.30
2010,07,07,15,37,33.30
2010,07,07,15,38,33.40
2010,07,07,15,39,33.40
2010,07,07,15,40,33.30
2010,07,07,15,41,33.30
2010,07,07,15,42,33.30
2010,07,07,15,43,33.20
2010,07,07,15,44,33.20
2010,07,07,15,45,33.10
2010,07,07,15,46,33.10
2010,07,07,15,47,33.10
2010,07,07,15,48,33.00
2010,07,07,15,49,33.00
2010,07,07,15,50,32.90
2010,07,07,15,51,32.90
2010,07,07,15,52,32.90
2010,07,07,15,53,32.90
2010,07,07,15,54,32.80
2010,07,07,15,55,32.90
2010,07,07,15,56,32.90
2010,07,07,15,57,32.90
2010,07,07,15,58,33.00
2010,07,07,15,59,33.00
2010,07,07,16,00,32.90
2010,07,07,16,01,32.90
2010,07,07,16,02,32.90
2010,07,07,16,03,32.90
2010,07,07,16,04,32.80
2010,07,07,16,05,32.80
2010,07,07,16,06,32.90
2010,07,07,16,07,33.00
2010,07,07,16,08,33.00
2010,07,07,16,09,33.00
2010,07,07,16,10,33.10
2010,07,07,16,11,33.00
2010,07,07,16,12,33.00
2010,07,07,16,13,33.00
2010,07,07,16,14,33.00
2010,07,07,16,15,33.10
2010,07,07,16,16,33.10
2010,07,07,16,17,33.10
2010,07,07,16,18,33.10
2010,07,07,16,19,33.20
2010,07,07,16,20,33.10
2010,07,07,16,21,33.00
2010,07,07,16,22,33.00
2010,07,07,16,23,32.90
2010,07,07,16,24,32.90
2010,07,07,16,25,32.80
2010,07,07,16,26,32.80
2010,07,07,16,27,32.80
2010,07,07,16,28,32.80
2010,07,07,16,29,32.80
2010,07,07,16,30,32.80
2010,07,07,16,31,32.80
2010,07,07,16,32,32.80
2010,07,07,16,33,32.70
2010,07,07,16,34,32.70
2010,07,07,16,35,32.70
2010,07,07,16,36,32.80
2010,07,07,16,37,32.80
2010,07,07,16,38,32.70
2010,07,07,16,39,32.70
2010,07,07,16,40,32.70
2010,07,07,16,41,32.70
2010,07,07,16,42,32.70
2010,07,07,16,43,32.70
2010,07,07,16,44,32.70
2010,07,07,16,45,32.60
2010,07,07,16,46,32.60
2010,07,07,16,47,32.60
2010,07,07,16,48,32.60
2010,07,07,16,49,32.60
2010,07,07,16,50,32.70
2010,07,07,16,51,32.70
2010,07,07,16,52,32.70
2010,07,07,16,53,32.60
2010,07,07,16,54,32.60
2010,07,07,16,55,32.60
2010,07,07,16,56,32.60
2010,07,07,16,57,32.50
2010,07,07,16,58,32.50
2010,07,07,16,59,32.40
2010,07,07,17,00,32.40
2010,07,07,17,01,32.50
2010,07,07,17,02,32.60
2010,07,07,17,03,32.60
2010,07,07,17,04,32.60
2010,07,07,17,05,32.60
2010,07,07,17,06,32.60
2010,07,07,17,07,32.60
2010,07,07,17,08,32.60
2010,07,07,17,09,32.60
2010,07,07,17,10,32.70
2010,07,07,17,11,32.70
2010,07,07,17,12,32.70
2010,07,07,17,13,32.70
2010,07,07,17,14,32.70
2010,07,07,17,15,32.70
2010,07,07,17,16,32.70
2010,07,07,17,17,32.70
2010,07,07,17,18,32.60
2010,07,07,17,19,32.60
2010,07,07,17,20,32.50
2010,07,07,17,21,32.60
2010,07,07,17,22,32.60